Regional Weather Roundup
Issued by NWS

Home | Current Version | Previous Version | Graphics & Text | Print | Product List | Glossary On
Versions: 1 2 3 4 5 6 7 8 9 10 11 12 13 14 15 16 17 18 19 20 21 22 23 24 25 26 27 28 29 30 31 32 33 34 35 36 37 38 39 40 41 42 43 44 45 46 47 48 49 50
000
ASUS43 KMPX 070101
RWRMN
WEATHER ROUNDUP FOR MINNESOTA
NATIONAL WEATHER SERVICE TWIN CITIES/CHANHASSEN MN
700 PM CST FRI MAR 06 2015


NOTE: "FAIR" INDICATES FEW OR NO CLOUDS BELOW 12,000 FEET WITH NO
SIGNIFICANT WEATHER AND/OR OBSTRUCTIONS TO VISIBILITY. N/A MEANS
CURRENT SKY AND/OR WEATHER CONDITIONS ARE NOT AVAILABLE.

MNZ060>063-068>070-070200-
   Twin Cities Metro

CITY           SKY/WX    TMP DP  RH WIND       PRES   REMARKS
TWIN CITIES    MOCLDY    32  17  54 W7        30.07R WCI  26
ST PAUL        MOCLDY    31  16  54 W10       30.08R WCI  22
BLAINE         PTCLDY    32  19  59 W5        30.06R WCI  27
LAKEVILLE      MOCLDY    28  19  69 W7        30.07R WCI  21
EDEN PRAIRIE   PTCLDY    30  17  58 W6        30.06S WCI  24
SOUTH ST PAUL  MOCLDY    33  18  53 W5        30.07R WCI  28
LAKE ELMO      FAIR      32  19  59 W3        30.07R
$$
MNZ001>005-007-008-013>017-022>024-027-028-070200-
   Northwest Minnesota

CITY           SKY/WX    TMP DP  RH WIND       PRES   REMARKS
BEMIDJI        PTCLDY    27  13  53 SW5       29.94F WCI  22
HALLOCK        CLOUDY    34  28  80 S9        29.87F WCI  26
ROSEAU         MOCLDY    30  19  64 S13       29.86F WCI  20
WARROAD        MOCLDY    28  19  69 S10       29.87F WCI  19
THIEF RVR FALL CLOUDY    30  23  74 S13       29.92F WCI  20
CROOKSTON      CLOUDY    34  23  64 S14       29.93F WCI  24
FOSSTON        MOCLDY    27  19  74 S12       29.95F WCI  16
DETROIT LAKES  PTCLDY    30  19  64 S3        30.00F
MOORHEAD       CLOUDY    36  21  55 S7        30.00F
PARK RAPIDS    PTCLDY    26  14  60 SW7       29.97F WCI  18
MAHNOMEN       MOCLDY    31  23  74 S10       29.97F WCI  22
$$
MNZ006-009>011-018-025>026-070200-
   North Central Minnesota

CITY           SKY/WX    TMP DP  RH WIND       PRES   REMARKS
BAUDETTE       PTCLDY    27  14  58 SW10      29.87F WCI  17
FLAG ISLAND    CLOUDY    28  18  64 SW14      29.83F WCI  17
INTL FALLS     PTCLDY    27   8  44 SW8       29.89S WCI  19
WASKISH        PTCLDY    27  16  63 CALM      29.92F
BIG FORK       CLEAR     25   9  50 CALM      29.94S
LONGVILLE      PTCLDY    21  10  63 CALM      29.98S
GRAND RAPIDS   CLEAR     25   9  50 S3        29.96S
CRANE LAKE     PTCLDY    18   7  62 CALM      29.93F
ORR            CLEAR     27   7  43 CALM      29.89F
COOK           CLEAR     27   9  46 SW3       29.93S
WALKER         FAIR      28   9  45 SW5       29.97S WCI  22
$$
MNZ012-019>021-037-070200-
   Northeast Minnesota

CITY           SKY/WX    TMP DP  RH WIND       PRES   REMARKS
DULUTH         CLEAR     28   9  44 W8        29.96R WCI  20
ELY            CLEAR     25   7  46 SW3       29.92S
HIBBING        CLEAR     27   7  42 W3        29.94S
EVELETH        CLEAR     28  10  47 SW5       29.95S WCI  23
DULUTH HARBOR  CLEAR     32  10  40 CALM      30.00S
TWO HARBORS    CLEAR     32  14  47 W3        29.94S
SILVER BAY     CLEAR     28   9  43 CALM      29.92S
GRAND MARAIS     N/A     27   7  42 W3        29.94R
G MARAIS ARPRT CLEAR     19   3  49 W7        29.88R WCI  10
$$
MNZ029>031-032-039>041-046>048-054>057-064-070200-
   West Central Minnesota

CITY           SKY/WX    TMP DP  RH WIND       PRES   REMARKS
FERGUS FALLS   MOCLDY    30  23  74 SW6       30.06S WCI  24
WHEATON        CLOUDY    32  23  69 SW7       30.07S WCI  26
MORRIS         PTCLDY    30  23  74 SW6       30.05S WCI  24
ALEXANDRIA     PTCLDY    24  17  74 SW8       30.04S WCI  15
ELBOW LAKE     FAIR      26  22  87 S8        30.04S WCI  17
WADENA         PTCLDY    23  14  68 SW3       30.01S
GLENWOOD       PTCLDY    25  19  80 SW5       30.05S WCI  19
APPLETON       PTCLDY    30  21  69 CALM      30.07S
BENSON         CLEAR     28  21  74 W5        30.07S WCI  23
ORTONVILLE     MOCLDY    32  21  64 SW5       30.06S WCI  27
MADISON        CLOUDY    32  25  74 CALM      30.07F
WILLMAR        FAIR      28  21  74 CALM      30.09S
$$
MNZ033>034-036-042>043-049>051-058-059-070200-
   Central Minnesota

CITY           SKY/WX    TMP DP  RH WIND       PRES   REMARKS
ST CLOUD       CLEAR     27  15  61 W7        30.05R WCI  19
SAUK CENTRE    FAIR      26  19  75 SW6       30.06R WCI  20
PAYNESVILLE    CLEAR     22  16  79 SW6       30.07R WCI  14
AITKIN         PTCLDY    30  10  43 W3        29.98S
PINE RIVER     PTCLDY    28  12  50 CALM      30.02F
BRAINERD       PTCLDY    23  10  57 W6        30.01S WCI  16
STAPLES        CLEAR     27  14  59 SW3       30.02S
LONG PRAIRIE   FAIR      25  18  74 S3        30.04S
LITTLE FALLS   CLEAR     27  14  59 CALM      30.04S
LITCHFIELD     CLEAR     28  19  69 W3        30.08S
BUFFALO        CLEAR     29  18  63 SW5       30.08R WCI  23
MAPLE LAKE     CLEAR     30  20  66 W6        30.07R WCI  24
$$
MNZ037-044-045-052-053-070200-
   East Central Minnesota

CITY           SKY/WX    TMP DP  RH WIND       PRES   REMARKS
PRINCETON      CLEAR     30  16  55 W5        30.05R WCI  25
MORA           PTCLDY    28  14  54 CALM      30.05R
CAMBRIDGE      PTCLDY    32  18  55 W3        30.03R
RUSH CITY      PTCLDY    28  16  61 CALM      30.04R
MOOSE LAKE     PTCLDY    28  10  47 CALM      29.99R
HINCKLEY       FAIR      27  14  59 SW5       30.02R WCI  21
CLOQUET        CLEAR     28   9  43 W5        29.97S WCI  23
MCGREGOR       PTCLDY    30  10  43 W3        29.99S
$$
MNZ071>073-080-081-089-090-097-098-070200-
   Southwest Minnesota

CITY           SKY/WX    TMP DP  RH WIND       PRES   REMARKS
MONTEVIDEO     PTCLDY    30  19  64 CALM      30.09S
GRANITE FALLS  CLEAR     31  24  74 CALM      30.10S
CANBY          CLOUDY    33  23  66 S3        30.07F
MARSHALL       PTCLDY    32  21  64 CALM      30.10S
REDWOOD FALLS  CLEAR     31  20  63 W5        30.09S WCI  26
OLIVIA         CLEAR     28  21  74 CALM      30.08S
PIPESTONE      PTCLDY    36  27  69 W2        30.07S
WINDOM         CLEAR     32  25  74 CALM      30.09S
WORTHINGTON    CLEAR     34  25  69 W5        30.10S WCI  30
JACKSON        CLEAR     34  27  75 CALM      30.09S
TRACY          CLEAR     32  25  74 CALM      30.09R
SLAYTON        CLEAR     33  25  73 CALM      30.08F
$$
MNZ065>067-074>077-082>085-091>093-070200-
   South Central Minnesota

CITY           SKY/WX    TMP DP  RH WIND       PRES   REMARKS
MANKATO        PTCLDY    32  19  59 NW6       30.09R WCI  26
NEW ULM        CLEAR     28  21  74 W6        30.10R WCI  22
ST JAMES       FAIR      32  25  74 CALM      30.11R
FAIRMONT       PTCLDY    34  21  60 NW3       30.09R
GLENCOE        PTCLDY    32  24  74 W6        30.08R WCI  26
FARIBAULT      MOCLDY    32  21  64 W6        30.08R WCI  26
OWATONNA       PTCLDY    32  23  69 W8        30.08R WCI  25
WASECA         PTCLDY    32  25  74 W7        30.09S WCI  26
ALBERT LEA     PTCLDY    34  25  69 W6        30.08S WCI  29
$$
MNZ078>079-086>088-094>096-070200-
   Southeast Minnesota

CITY           SKY/WX    TMP DP  RH WIND       PRES   REMARKS
ROCHESTER      MOCLDY    31  22  69 W12       30.06R WCI  22
RED WING       MOCLDY    34  18  51 CALM      30.06R
STANTON        MOCLDY    32  22  66 W8        30.06R WCI  25
DODGE CENTER   MOCLDY    34  23  64 W12       30.06R WCI  25
WINONA         MOCLDY    34  25  69 W6        30.07R WCI  29
AUSTIN         MOCLDY    34  27  75 NW5       30.07S WCI  30
PRESTON        MOCLDY    32  25  76 W10       30.07R WCI  24
$$
ABBREVIATIONS USED IN REMARKS
   TC - TEMPERATURES IN CELSIUS
  WCI - WIND CHILL INDEX
   HX - HEAT INDEX
  VSB - VISIBILITY
$$



USA.gov is the U.S. government's official web portal to all federal, state and local government web resources and services.